Time,TemperatureF,DewpointF,PressureIn,WindDirection,WindDirectionDegrees,WindSpeedMPH,WindSpeedGustMPH,Humidity,HourlyPrecipIn,Conditions,Clouds,dailyrainin,SolarRadiationWatts/m^2,SoftwareType,DateUTC
2013-04-24 00:02:00,26.0,12.0,-100.00,ESE,110,2.0,6.0,55,0.00,,,0.00,0.000000,,2013-04-24 06:02:00,
2013-04-24 00:33:00,26.0,12.0,-100.00,North,2,1.0,4.0,56,0.00,,,0.00,0.000000,,2013-04-24 06:33:00,
2013-04-24 00:42:00,26.0,12.0,-100.00,North,2,1.0,4.0,56,0.00,,,0.00,0.000000,,2013-04-24 06:42:00,
2013-04-24 00:52:00,26.0,12.0,-100.00,North,2,1.0,4.0,56,0.00,,,0.00,0.000000,,2013-04-24 06:52:00,
2013-04-24 01:02:00,26.0,12.0,-100.00,North,2,1.0,4.0,56,0.00,,,0.00,0.000000,,2013-04-24 07:02:00,
2013-04-24 01:32:00,25.0,12.0,-100.00,East,79,2.0,7.0,57,0.00,,,0.00,0.000000,,2013-04-24 07:32:00,
2013-04-24 01:42:00,25.0,12.0,-100.00,East,79,2.0,7.0,57,0.00,,,0.00,0.000000,,2013-04-24 07:42:00,
2013-04-24 01:52:00,25.0,12.0,-100.00,East,79,2.0,7.0,57,0.00,,,0.00,0.000000,,2013-04-24 07:52:00,
2013-04-24 02:01:00,25.0,12.0,-100.00,East,79,2.0,7.0,57,0.00,,,0.00,0.000000,,2013-04-24 08:01:00,
2013-04-24 02:33:00,24.0,12.0,-100.00,East,84,2.0,7.0,59,0.00,,,0.00,0.000000,,2013-04-24 08:33:00,
2013-04-24 02:42:00,24.0,12.0,-100.00,East,84,2.0,7.0,59,0.00,,,0.00,0.000000,,2013-04-24 08:42:00,
2013-04-24 02:52:00,24.0,12.0,-100.00,East,84,2.0,7.0,59,0.00,,,0.00,0.000000,,2013-04-24 08:52:00,
2013-04-24 03:01:00,24.0,12.0,-100.00,East,84,2.0,7.0,59,0.00,,,0.00,0.000000,,2013-04-24 09:01:00,
2013-04-24 03:33:00,22.0,11.0,-100.00,East,91,2.0,5.0,63,0.00,,,0.00,0.000000,,2013-04-24 09:33:00,
2013-04-24 03:42:00,22.0,11.0,-100.00,East,91,2.0,5.0,63,0.00,,,0.00,0.000000,,2013-04-24 09:42:00,
2013-04-24 03:53:00,22.0,11.0,-100.00,East,91,2.0,5.0,63,0.00,,,0.00,0.000000,,2013-04-24 09:53:00,
2013-04-24 04:02:00,22.0,11.0,-100.00,East,91,2.0,5.0,63,0.00,,,0.00,0.000000,,2013-04-24 10:02:00,
2013-04-24 04:33:00,22.0,12.0,-100.00,East,86,2.0,7.0,64,0.00,,,0.00,0.000000,,2013-04-24 10:33:00,
2013-04-24 04:42:00,22.0,12.0,-100.00,East,86,2.0,7.0,64,0.00,,,0.00,0.000000,,2013-04-24 10:42:00,
2013-04-24 04:53:00,22.0,12.0,-100.00,East,86,2.0,7.0,64,0.00,,,0.00,0.000000,,2013-04-24 10:53:00,
2013-04-24 05:02:00,22.0,12.0,-100.00,East,86,2.0,7.0,64,0.00,,,0.00,0.000000,,2013-04-24 11:02:00,
2013-04-24 05:32:00,20.0,11.0,-100.00,East,85,3.0,7.0,68,0.00,,,0.00,0.000000,,2013-04-24 11:32:00,
2013-04-24 05:42:00,20.0,11.0,-100.00,East,85,3.0,7.0,68,0.00,,,0.00,0.000000,,2013-04-24 11:42:00,
2013-04-24 05:52:00,20.0,11.0,-100.00,East,85,3.0,7.0,68,0.00,,,0.00,0.000000,,2013-04-24 11:52:00,
2013-04-24 06:01:00,20.0,11.0,-100.00,East,85,3.0,7.0,68,0.00,,,0.00,0.000000,,2013-04-24 12:01:00,
2013-04-24 06:32:00,20.0,11.0,-100.00,East,98,3.0,5.0,68,0.00,,,-99.99,0.000000,,2013-04-24 12:32:00,
2013-04-24 06:42:00,20.0,11.0,-100.00,East,98,3.0,5.0,68,0.00,,,-99.99,0.000000,,2013-04-24 12:42:00,
2013-04-24 06:52:00,20.0,11.0,-100.00,East,98,3.0,5.0,68,0.00,,,-99.99,0.000000,,2013-04-24 12:52:00,
2013-04-24 07:01:00,20.0,11.0,-100.00,East,98,3.0,5.0,68,0.00,,,-99.99,0.000000,,2013-04-24 13:01:00,
2013-04-24 09:33:00,32.0,15.0,-100.00,East,95,3.0,8.0,49,-99.99,,,0.00,201.000000,,2013-04-24 15:33:00,
2013-04-24 09:53:00,32.0,15.0,-100.00,East,95,3.0,8.0,49,-99.99,,,0.00,201.000000,,2013-04-24 15:53:00,
2013-04-24 10:03:00,32.0,15.0,-100.00,East,95,3.0,8.0,49,-99.99,,,0.00,201.000000,,2013-04-24 16:03:00,
2013-04-24 11:32:00,46.0,14.0,-100.00,ENE,66,2.0,8.0,27,-99.99,,,0.00,695.000000,,2013-04-24 17:32:00,
2013-04-24 12:33:00,46.0,9.0,-100.00,WSW,238,3.0,10.0,22,0.00,,,0.00,843.000000,,2013-04-24 18:33:00,
2013-04-24 13:32:00,45.0,3.0,-100.00,West,272,6.0,15.0,17,0.00,,,0.00,940.000000,,2013-04-24 19:32:00,
2013-04-24 13:42:00,45.0,3.0,-100.00,West,272,6.0,15.0,17,0.00,,,0.00,940.000000,,2013-04-24 19:42:00,
2013-04-24 13:52:00,45.0,3.0,-100.00,West,272,6.0,15.0,17,0.00,,,0.00,940.000000,,2013-04-24 19:52:00,
2013-04-24 14:01:00,45.0,3.0,-100.00,West,272,6.0,15.0,17,0.00,,,0.00,940.000000,,2013-04-24 20:01:00,
2013-04-24 14:32:00,48.0,5.0,-100.00,West,274,5.0,14.0,17,0.00,,,0.00,982.000000,,2013-04-24 20:32:00,
2013-04-24 14:42:00,48.0,5.0,-100.00,West,274,5.0,14.0,17,0.00,,,0.00,982.000000,,2013-04-24 20:42:00,
2013-04-24 14:52:00,48.0,5.0,-100.00,West,274,5.0,14.0,17,0.00,,,0.00,982.000000,,2013-04-24 20:52:00,
2013-04-24 15:02:00,48.0,5.0,-100.00,West,274,5.0,14.0,17,0.00,,,0.00,982.000000,,2013-04-24 21:02:00,
2013-04-24 15:33:00,50.0,9.0,-100.00,WSW,242,4.0,14.0,19,0.00,,,0.00,957.000000,,2013-04-24 21:33:00,
2013-04-24 15:42:00,50.0,9.0,-100.00,WSW,242,4.0,14.0,19,0.00,,,0.00,957.000000,,2013-04-24 21:42:00,
2013-04-24 15:52:00,50.0,9.0,-100.00,WSW,242,4.0,14.0,19,0.00,,,0.00,957.000000,,2013-04-24 21:52:00,
2013-04-24 16:02:00,50.0,9.0,-100.00,WSW,242,4.0,14.0,19,0.00,,,0.00,957.000000,,2013-04-24 22:02:00,
2013-04-24 16:33:00,50.0,8.0,-100.00,WNW,293,4.0,15.0,18,0.00,,,0.00,878.000000,,2013-04-24 22:33:00,
2013-04-24 16:42:00,50.0,8.0,-100.00,WNW,293,4.0,15.0,18,0.00,,,0.00,878.000000,,2013-04-24 22:42:00,
2013-04-24 16:52:00,50.0,8.0,-100.00,WNW,293,4.0,15.0,18,0.00,,,0.00,878.000000,,2013-04-24 22:52:00,
2013-04-24 17:02:00,50.0,8.0,-100.00,WNW,293,4.0,15.0,18,0.00,,,0.00,878.000000,,2013-04-24 23:02:00,
2013-04-24 17:32:00,49.0,11.0,-100.00,WSW,244,6.0,14.0,21,0.00,,,0.00,739.000000,,2013-04-24 23:32:00,
2013-04-24 17:42:00,49.0,11.0,-100.00,WSW,244,6.0,14.0,21,0.00,,,0.00,739.000000,,2013-04-24 23:42:00,
2013-04-24 17:52:00,49.0,11.0,-100.00,WSW,244,6.0,14.0,21,0.00,,,0.00,739.000000,,2013-04-24 23:52:00,
2013-04-24 18:01:00,49.0,11.0,-100.00,WSW,244,6.0,14.0,21,0.00,,,0.00,739.000000,,2013-04-25 00:01:00,
2013-04-24 18:32:00,49.0,14.0,-100.00,West,260,5.0,15.0,24,0.00,,,-99.99,554.000000,,2013-04-25 00:32:00,
2013-04-24 18:42:00,49.0,14.0,-100.00,West,260,5.0,15.0,24,0.00,,,-99.99,554.000000,,2013-04-25 00:42:00,
2013-04-24 18:52:00,49.0,14.0,-100.00,West,260,5.0,15.0,24,0.00,,,-99.99,554.000000,,2013-04-25 00:52:00,
2013-04-24 19:01:00,49.0,14.0,-100.00,West,260,5.0,15.0,24,0.00,,,-99.99,554.000000,,2013-04-25 01:01:00,
2013-04-24 19:32:00,47.0,13.0,-100.00,West,268,6.0,14.0,25,0.00,,,0.00,346.000000,,2013-04-25 01:32:00,
2013-04-24 19:42:00,47.0,13.0,-100.00,West,268,6.0,14.0,25,0.00,,,0.00,346.000000,,2013-04-25 01:42:00,
2013-04-24 19:52:00,47.0,13.0,-100.00,West,268,6.0,14.0,25,0.00,,,0.00,346.000000,,2013-04-25 01:52:00,
2013-04-24 20:01:00,47.0,13.0,-100.00,West,268,6.0,14.0,25,0.00,,,0.00,346.000000,,2013-04-25 02:01:00,
2013-04-24 20:32:00,43.0,14.0,-100.00,WSW,258,4.0,12.0,30,0.00,,,0.00,141.000000,,2013-04-25 02:32:00,
2013-04-24 20:42:00,43.0,14.0,-100.00,WSW,258,4.0,12.0,30,0.00,,,0.00,141.000000,,2013-04-25 02:42:00,
2013-04-24 20:51:00,43.0,14.0,-100.00,WSW,258,4.0,12.0,30,0.00,,,0.00,141.000000,,2013-04-25 02:51:00,
2013-04-24 21:02:00,43.0,14.0,-100.00,WSW,258,4.0,12.0,30,0.00,,,0.00,141.000000,,2013-04-25 03:02:00,
2013-04-24 21:33:00,38.0,14.0,-100.00,WSW,256,3.0,8.0,37,0.00,,,0.00,12.000000,,2013-04-25 03:33:00,
2013-04-24 21:43:00,38.0,14.0,-100.00,WSW,256,3.0,8.0,37,0.00,,,0.00,12.000000,,2013-04-25 03:43:00,
2013-04-24 21:52:00,38.0,14.0,-100.00,WSW,256,3.0,8.0,37,0.00,,,0.00,12.000000,,2013-04-25 03:52:00,
2013-04-24 22:03:00,38.0,14.0,-100.00,WSW,256,3.0,8.0,37,0.00,,,0.00,12.000000,,2013-04-25 04:03:00,
2013-04-24 22:33:00,35.0,14.0,-100.00,WSW,247,1.0,6.0,42,0.00,,,0.00,0.000000,,2013-04-25 04:33:00,
2013-04-24 22:43:00,35.0,14.0,-100.00,WSW,247,1.0,6.0,42,0.00,,,0.00,0.000000,,2013-04-25 04:43:00,
2013-04-24 22:52:00,35.0,14.0,-100.00,WSW,247,1.0,6.0,42,0.00,,,0.00,0.000000,,2013-04-25 04:52:00,
2013-04-24 23:02:00,35.0,14.0,-100.00,WSW,247,1.0,6.0,42,0.00,,,0.00,0.000000,,2013-04-25 05:02:00,
2013-04-24 23:32:00,34.0,14.0,-100.00,SW,219,0.0,3.0,44,0.00,,,0.00,0.000000,,2013-04-25 05:32:00,
2013-04-24 23:42:00,34.0,14.0,-100.00,SW,219,0.0,3.0,44,0.00,,,0.00,0.000000,,2013-04-25 05:42:00,
2013-04-24 23:52:00,34.0,14.0,-100.00,SW,219,0.0,3.0,44,0.00,,,0.00,0.000000,,2013-04-25 05:52:00,